Weather History for KORS - February, 2013

Change the Weather History Date:

Sunday, February 24, 2013

  Actual Average (KBLI) Record (KBLI)
Temperature  
Mean Temperature 44 °F 41 °F  
Max Temperature 46 °F 49 °F 61 °F (1986)
Min Temperature 41 °F 34 °F 20 °F (2011)
Degree Days  
Heating Degree Days 22 24  
Month to date heating degree days 587  
Cooling Degree Days 0 0  
Month to date cooling degree days 0  
Year to date cooling degree days 0  
Moisture  
Dew Point 37 °F    
Average Humidity 77    
Maximum Humidity 87    
Minimum Humidity 66    
Precipitation  
Precipitation 0.00 in 0.10 in 1.03 in (1986)
Month to date precipitation 2.61  
Year to date precipitation 7.28  
Sea Level Pressure  
Sea Level Pressure 30.15 in    
Wind  
Wind Speed 9 mph (South)    
Max Wind Speed 16 mph    
Max Gust Speed 31 mph    
Visibility 10 miles    
Events      
T = Trace of Precipitation, MM = Missing Value Source: NWS Daily Summary

Daily Weather History Graph

Daily Weather History Graph

Search for Another Location

Airport or City:

Trip Planner

Search our weather history database for the weather conditions in past years. The results will help you decide how hot, cold, wet, or windy it might be!

Date:

Astronomy

Feb. 24, 2013 Rise Set
Actual Time 7:02 AM PST 5:47 PM PST
Civil Twilight 6:30 AM PST 6:19 PM PST
Nautical Twilight 5:54 AM PST 6:56 PM PST
Astronomical Twilight 5:17 AM PST 7:32 PM PST
Moon 5:05 PM PST (2/24) 6:04 AM PST (2/24)
Length of Visible Light 11h 49m
Length of Day
10h 45m
Waxing Gibbous, 99% of the Moon is Illuminated
Feb 24
Waxing Gibbous
Feb 25
Full
Mar 4
Last Quarter
Mar 11
New
Mar 19
First Quarter

Hourly Weather History & Observations

Time (PST) Temp. Windchill Dew Point Humidity Pressure Visibility Wind Dir Wind Speed Gust Speed Precip Events Conditions
12:15 AM 41.0 °F 36.4 °F 35.6 °F 81% 30.31 in 10.0 mi SSW 6.9 mph - N/A   Clear
12:35 AM 41.0 °F 37.1 °F 35.6 °F 81% 30.31 in 10.0 mi South 5.8 mph - N/A   Partly Cloudy
12:55 AM 41.0 °F 37.1 °F 35.6 °F 81% 30.32 in 10.0 mi SSW 5.8 mph - N/A   Partly Cloudy
1:15 AM 41.0 °F 36.4 °F 35.6 °F 81% 30.31 in 10.0 mi South 6.9 mph - N/A   Clear
1:35 AM 41.0 °F 36.4 °F 35.6 °F 81% 30.32 in 10.0 mi SSW 6.9 mph - N/A   Scattered Clouds
1:55 AM 41.0 °F 36.4 °F 35.6 °F 81% 30.33 in 10.0 mi SSW 6.9 mph - N/A   Mostly Cloudy
2:15 AM 41.0 °F 35.8 °F 33.8 °F 76% 30.33 in 10.0 mi SSW 8.1 mph - N/A   Scattered Clouds
2:35 AM 41.0 °F 35.8 °F 35.6 °F 81% 30.33 in 10.0 mi SSW 8.1 mph - N/A   Scattered Clouds
3:15 AM 42.8 °F 38.0 °F 33.8 °F 70% 30.33 in 10.0 mi SSW 8.1 mph - N/A   Overcast
3:35 AM 41.0 °F 36.4 °F 33.8 °F 76% 30.33 in 10.0 mi SSW 6.9 mph - N/A   Overcast
3:55 AM 41.0 °F 35.8 °F 35.6 °F 81% 30.33 in 10.0 mi South 8.1 mph - N/A   Mostly Cloudy
4:15 AM 41.0 °F 36.4 °F 35.6 °F 81% 30.32 in 10.0 mi SSW 6.9 mph - N/A   Scattered Clouds
4:35 AM 41.0 °F 37.1 °F 35.6 °F 81% 30.32 in 10.0 mi SSW 5.8 mph - N/A   Partly Cloudy
4:55 AM 41.0 °F 37.1 °F 35.6 °F 81% 30.30 in 10.0 mi South 5.8 mph - N/A   Clear
5:15 AM 41.0 °F 34.7 °F 37.4 °F 87% 30.30 in 10.0 mi SSW 10.4 mph - N/A   Clear
5:35 AM 41.0 °F 36.4 °F 35.6 °F 81% 30.30 in 10.0 mi South 6.9 mph - N/A   Partly Cloudy
5:55 AM 41.0 °F 36.4 °F 35.6 °F 81% 30.30 in 10.0 mi South 6.9 mph - N/A   Mostly Cloudy
6:15 AM 41.0 °F 35.2 °F 35.6 °F 81% 30.29 in 10.0 mi South 9.2 mph - N/A   Mostly Cloudy
6:55 AM 41.0 °F 37.1 °F 35.6 °F 81% 30.28 in 10.0 mi South 5.8 mph - N/A   Scattered Clouds
7:15 AM 41.0 °F 36.4 °F 35.6 °F 81% 30.28 in 10.0 mi South 6.9 mph - N/A   Mostly Cloudy
7:35 AM 41.0 °F 34.3 °F 35.6 °F 81% 30.28 in 10.0 mi South 11.5 mph 18.4 mph N/A   Mostly Cloudy
7:55 AM 41.0 °F 35.2 °F 37.4 °F 87% 30.28 in 9.0 mi South 9.2 mph - N/A   Overcast
8:15 AM 41.0 °F 35.8 °F 37.4 °F 87% 30.27 in 9.0 mi SSE 8.1 mph - N/A   Overcast
8:35 AM 41.0 °F 37.1 °F 37.4 °F 87% 30.26 in 4.0 mi South 5.8 mph - N/A   Mostly Cloudy
8:55 AM 41.0 °F 35.8 °F 37.4 °F 87% 30.26 in 10.0 mi South 8.1 mph - N/A   Scattered Clouds
9:15 AM 41.0 °F 35.8 °F 37.4 °F 87% 30.26 in 10.0 mi South 8.1 mph 17.3 mph N/A   Partly Cloudy
9:35 AM 42.8 °F 37.5 °F 37.4 °F 81% 30.25 in 10.0 mi South 9.2 mph - N/A   Partly Cloudy
9:55 AM 42.8 °F 38.0 °F 35.6 °F 76% 30.25 in 10.0 mi South 8.1 mph 23.0 mph N/A   Partly Cloudy
10:15 AM 42.8 °F 36.6 °F 37.4 °F 81% 30.24 in 9.0 mi South 11.5 mph 20.7 mph N/A   Partly Cloudy
10:35 AM 44.6 °F 38.8 °F 37.4 °F 76% 30.24 in 10.0 mi South 11.5 mph 17.3 mph N/A   Partly Cloudy
10:55 AM 44.6 °F 39.2 °F 35.6 °F 71% 30.23 in 10.0 mi South 10.4 mph 24.2 mph N/A   Clear
11:15 AM 44.6 °F 38.8 °F 35.6 °F 71% 30.22 in 10.0 mi South 11.5 mph 21.9 mph N/A   Clear
11:35 AM 44.6 °F 39.7 °F 37.4 °F 76% 30.21 in 9.0 mi South 9.2 mph 18.4 mph N/A   Clear
11:55 AM 44.6 °F 38.1 °F 37.4 °F 76% 30.21 in 10.0 mi South 13.8 mph 19.6 mph N/A   Partly Cloudy
12:15 PM 44.6 °F 38.4 °F 37.4 °F 76% 30.21 in 9.0 mi South 12.7 mph 23.0 mph N/A   Partly Cloudy
12:35 PM 44.6 °F 39.7 °F 37.4 °F 76% 30.20 in 10.0 mi South 9.2 mph 24.2 mph N/A   Clear
12:55 PM 44.6 °F 38.4 °F 37.4 °F 76% 30.19 in 10.0 mi South 12.7 mph 24.2 mph N/A   Partly Cloudy
1:15 PM 44.6 °F 39.2 °F 37.4 °F 76% 30.18 in 9.0 mi South 10.4 mph 20.7 mph N/A   Clear
1:35 PM 46.4 °F 41.5 °F 37.4 °F 71% 30.16 in 10.0 mi South 10.4 mph 20.7 mph N/A   Clear
1:55 PM 46.4 °F 41.5 °F 37.4 °F 71% 30.16 in 10.0 mi South 10.4 mph 17.3 mph N/A   Mostly Cloudy
2:15 PM 46.4 °F 41.1 °F 37.4 °F 71% 30.15 in 10.0 mi South 11.5 mph 19.6 mph N/A   Mostly Cloudy
2:35 PM 46.4 °F 41.9 °F 37.4 °F 71% 30.14 in 10.0 mi South 9.2 mph 19.6 mph N/A   Mostly Cloudy
2:55 PM 46.4 °F 40.7 °F 37.4 °F 71% 30.13 in 10.0 mi South 12.7 mph 16.1 mph N/A   Mostly Cloudy
3:15 PM 46.4 °F 40.7 °F 37.4 °F 71% 30.12 in 10.0 mi South 12.7 mph 20.7 mph N/A   Mostly Cloudy
3:35 PM 46.4 °F 41.1 °F 37.4 °F 71% 30.10 in 10.0 mi South 11.5 mph 23.0 mph N/A   Mostly Cloudy
3:55 PM 46.4 °F 41.5 °F 37.4 °F 71% 30.10 in 10.0 mi South 10.4 mph 21.9 mph N/A   Mostly Cloudy
4:15 PM 46.4 °F 40.4 °F 37.4 °F 71% 30.09 in 10.0 mi South 13.8 mph 21.9 mph N/A   Overcast
4:35 PM 46.4 °F 43.5 °F 37.4 °F 71% 30.08 in 10.0 mi SSE 5.8 mph 27.6 mph N/A   Mostly Cloudy
4:55 PM 46.4 °F 42.4 °F 37.4 °F 71% 30.07 in 10.0 mi South 8.1 mph 17.3 mph N/A   Scattered Clouds
5:15 PM 44.6 °F 40.2 °F 37.4 °F 76% 30.06 in 10.0 mi South 8.1 mph 17.3 mph N/A   Mostly Cloudy
5:35 PM 44.6 °F 39.7 °F 37.4 °F 76% 30.04 in 10.0 mi SSE 9.2 mph 19.6 mph N/A   Mostly Cloudy
5:55 PM 44.6 °F 40.2 °F 37.4 °F 76% 30.03 in 10.0 mi South 8.1 mph 19.6 mph N/A   Scattered Clouds
6:15 PM 44.6 °F 39.7 °F 37.4 °F 76% 30.01 in 10.0 mi South 9.2 mph - N/A   Partly Cloudy
6:35 PM 44.6 °F 40.2 °F 37.4 °F 76% 29.99 in 10.0 mi South 8.1 mph 20.7 mph N/A   Clear
6:55 PM 44.6 °F 40.2 °F 37.4 °F 76% 29.98 in 10.0 mi SSE 8.1 mph 24.2 mph N/A   Clear
7:15 PM 44.6 °F 38.8 °F 37.4 °F 76% 29.97 in 10.0 mi South 11.5 mph 21.9 mph N/A   Clear
7:35 PM 44.6 °F 38.8 °F 37.4 °F 76% 29.97 in 10.0 mi South 11.5 mph 24.2 mph N/A   Clear
7:55 PM 44.6 °F 39.2 °F 37.4 °F 76% 29.95 in 10.0 mi South 10.4 mph 19.6 mph N/A   Partly Cloudy
8:15 PM 44.6 °F 38.8 °F 37.4 °F 76% 29.93 in 10.0 mi South 11.5 mph 18.4 mph N/A   Partly Cloudy
8:35 PM 46.4 °F 41.1 °F 37.4 °F 71% 29.92 in 10.0 mi South 11.5 mph 27.6 mph N/A   Partly Cloudy
8:55 PM 46.4 °F 41.5 °F 37.4 °F 71% 29.91 in 10.0 mi South 10.4 mph 24.2 mph N/A   Mostly Cloudy
9:15 PM 46.4 °F 40.4 °F 37.4 °F 71% 29.89 in 10.0 mi South 13.8 mph 31.1 mph N/A   Partly Cloudy
9:35 PM 46.4 °F 39.8 °F 37.4 °F 71% 29.87 in 10.0 mi South 16.1 mph 25.3 mph N/A   Partly Cloudy
9:55 PM 46.4 °F 40.1 °F 37.4 °F 71% 29.87 in 10.0 mi South 15.0 mph 23.0 mph N/A   Clear
10:15 PM 46.4 °F 40.7 °F 35.6 °F 66% 29.86 in 10.0 mi South 12.7 mph 23.0 mph N/A   Clear
10:35 PM 46.4 °F 40.4 °F 37.4 °F 71% 29.85 in 10.0 mi South 13.8 mph 25.3 mph N/A   Clear
10:55 PM 44.6 °F 38.4 °F 37.4 °F 76% 29.85 in 10.0 mi South 12.7 mph 25.3 mph N/A   Clear
11:15 PM 44.6 °F 38.8 °F 37.4 °F 76% 29.83 in 10.0 mi South 11.5 mph 28.8 mph N/A   Partly Cloudy
11:35 PM 44.6 °F 38.4 °F 37.4 °F 76% 29.82 in 10.0 mi South 12.7 mph 24.2 mph N/A   Scattered Clouds